Phillips, WI

6:51 PM CDT on March 26, 2017 (GMT -0500)
Price County

Weather History for KPBH - November, 2012

Change the Weather History Date:

Monday, November 12, 2012

  Actual Average Record
Temperature  
Mean Temperature 24 °F -  
Max Temperature 26 °F 38 °F 64 °F (2011)
Min Temperature 21 °F 24 °F 8 °F (1996)
Degree Days  
Heating Degree Days 42    
Moisture  
Dew Point 17 °F    
Average Humidity 77    
Maximum Humidity 86    
Minimum Humidity 68    
Precipitation  
Precipitation 0.00 in - - ()
Sea Level Pressure  
Sea Level Pressure 29.95 in    
Wind  
Wind Speed 10 mph (WSW)    
Max Wind Speed 17 mph    
Max Gust Speed 24 mph    
Visibility 8 miles    
Events Snow    
Averages and records for this station are not official NWS values.
T = Trace of Precipitation, MM = Missing Value Source: NWS Daily Summary

Daily Weather History Graph

Daily Weather History Graph

Search for Another Location

Airport or City:

Trip Planner

Search our weather history database for the weather conditions in past years. The results will help you decide how hot, cold, wet, or windy it might be!

Date:

Astronomy

Nov. 12, 2012 Rise Set
Actual Time 6:57 AM CST 4:33 PM CST
Civil Twilight 6:25 AM CST 5:05 PM CST
Nautical Twilight 5:49 AM CST 5:41 PM CST
Astronomical Twilight 5:14 AM CST 6:16 PM CST
Moon 5:20 AM CST (11/12) 3:40 PM CST (11/12)
Length of Visible Light 10h 39m
Length of Day
9h 35m
Waning Crescent, 2% of the Moon is Illuminated
Nov 12
Waning Crescent
Nov 13
New
Nov 20
First Quarter
Nov 28
Full
Dec 6
Last Quarter

Hourly Weather History & Observations

Time (CST) Temp. Windchill Dew Point Humidity Pressure Visibility Wind Dir Wind Speed Gust Speed Precip Events Conditions
12:15 AM 26.6 °F 17.5 °F 21.2 °F 80% 29.83 in 10.0 mi WSW 9.2 mph - N/A   Unknown
12:55 AM 24.8 °F 14.0 °F 19.4 °F 80% 29.83 in 10.0 mi WSW 11.5 mph 24.2 mph N/A   Unknown
1:15 AM 24.8 °F 16.9 °F 19.4 °F 80% 29.83 in 10.0 mi West 6.9 mph - N/A   Unknown
1:35 AM 24.8 °F 16.1 °F 19.4 °F 80% 29.83 in 10.0 mi WSW 8.1 mph - N/A   Unknown
1:55 AM 24.8 °F 16.1 °F 19.4 °F 80% 29.84 in 10.0 mi WSW 8.1 mph - N/A   Unknown
2:15 AM 24.8 °F 15.3 °F 19.4 °F 80% 29.84 in 10.0 mi West 9.2 mph 16.1 mph N/A Snow Light Snow
2:35 AM 24.8 °F 16.1 °F 19.4 °F 80% 29.84 in 10.0 mi WSW 8.1 mph - N/A Snow Light Snow
2:55 AM 24.8 °F 15.3 °F 17.6 °F 74% 29.84 in 10.0 mi WSW 9.2 mph 17.3 mph N/A Snow Light Snow
3:15 AM 24.8 °F 16.1 °F 17.6 °F 74% 29.84 in 10.0 mi WSW 8.1 mph - N/A   Unknown
3:35 AM 24.8 °F 14.0 °F 17.6 °F 74% 29.84 in 10.0 mi WSW 11.5 mph - N/A Snow Light Snow
3:55 AM 24.8 °F 15.3 °F 19.4 °F 80% 29.84 in 7.0 mi WSW 9.2 mph - N/A Snow Light Snow
4:15 AM 24.8 °F 13.4 °F 19.4 °F 80% 29.84 in 7.0 mi WSW 12.7 mph 17.3 mph N/A Snow Light Snow
4:35 AM 23.0 °F 13.9 °F 17.6 °F 80% 29.85 in 10.0 mi WSW 8.1 mph - N/A Snow Light Snow
4:55 AM 23.0 °F 10.6 °F 15.8 °F 74% 29.85 in 10.0 mi WSW 13.8 mph 18.4 mph N/A   Overcast
5:15 AM 21.2 °F 8.3 °F 14.0 °F 74% 29.86 in 10.0 mi West 13.8 mph 23.0 mph N/A   Overcast
5:35 AM 21.2 °F 11.7 °F 14.0 °F 74% 29.86 in 10.0 mi WSW 8.1 mph 18.4 mph N/A   Overcast
5:55 AM 21.2 °F 6.8 °F 15.8 °F 80% 29.85 in 7.0 mi WSW 17.3 mph 23.0 mph N/A Snow Light Snow
6:15 AM 21.2 °F 8.9 °F 15.8 °F 80% 29.85 in 10.0 mi WSW 12.7 mph 18.4 mph N/A Snow Light Snow
6:55 AM 21.2 °F 6.8 °F 12.2 °F 68% 29.87 in 10.0 mi WSW 17.3 mph 23.0 mph N/A   Overcast
7:15 AM 21.2 °F 11.7 °F 12.2 °F 68% 29.87 in 10.0 mi WSW 8.1 mph 19.6 mph N/A   Overcast
7:35 AM 21.2 °F 13.6 °F 12.2 °F 68% 29.87 in 10.0 mi WSW 5.8 mph 18.4 mph N/A   Overcast
7:55 AM 21.2 °F 10.9 °F 14.0 °F 74% 29.88 in 10.0 mi WSW 9.2 mph - N/A   Overcast
8:15 AM 21.2 °F 11.7 °F 15.8 °F 80% 29.88 in 4.0 mi WSW 8.1 mph - N/A Snow Light Snow
8:35 AM 21.2 °F 10.9 °F 17.6 °F 86% 29.88 in 1.0 mi WSW 9.2 mph - N/A Snow Light Snow
8:55 AM 21.2 °F 12.6 °F 17.6 °F 86% 29.88 in 1.5 mi West 6.9 mph 17.3 mph N/A Snow Light Snow
9:15 AM 21.2 °F 7.8 °F 15.8 °F 80% 29.88 in 2.5 mi WSW 15.0 mph 23.0 mph N/A Snow Light Snow
9:55 AM 21.2 °F 7.3 °F 12.2 °F 68% 29.88 in 7.0 mi WSW 16.1 mph 23.0 mph N/A Snow Light Snow
10:15 AM 21.2 °F 8.9 °F 12.2 °F 68% 29.89 in 7.0 mi WSW 12.7 mph 21.9 mph N/A Snow Light Snow
10:35 AM 23.0 °F 9.6 °F 15.8 °F 74% 29.89 in 7.0 mi WSW 16.1 mph 20.7 mph N/A Snow Light Snow
10:55 AM 21.2 °F 10.1 °F 15.8 °F 80% 29.89 in 3.0 mi WSW 10.4 mph - N/A Snow Light Snow
11:15 AM 23.0 °F 12.4 °F 15.8 °F 74% 29.89 in 3.0 mi WSW 10.4 mph 18.4 mph N/A Snow Light Snow
11:35 AM 23.0 °F 10.6 °F 15.8 °F 74% 29.89 in 7.0 mi WSW 13.8 mph 20.7 mph N/A Snow Light Snow
11:55 AM 23.0 °F 13.1 °F 15.8 °F 74% 29.89 in 10.0 mi WSW 9.2 mph - N/A Snow Light Snow
12:15 PM 23.0 °F 12.4 °F 17.6 °F 80% 29.89 in 4.0 mi WSW 10.4 mph - N/A Snow Light Snow
12:35 PM 23.0 °F 14.7 °F 19.4 °F 86% 29.89 in 4.0 mi WSW 6.9 mph - N/A Snow Light Snow
12:55 PM 24.8 °F 15.3 °F 19.4 °F 80% 29.90 in 2.5 mi SW 9.2 mph - N/A Snow Light Snow
1:15 PM 23.0 °F 13.9 °F 19.4 °F 86% 29.90 in 1.5 mi WSW 8.1 mph - N/A Snow Light Snow
1:35 PM 24.8 °F 14.0 °F 19.4 °F 80% 29.91 in 2.5 mi WSW 11.5 mph 17.3 mph N/A Snow Light Snow
1:55 PM 24.8 °F 16.9 °F 19.4 °F 80% 29.91 in 3.0 mi West 6.9 mph - N/A Snow Light Snow
2:15 PM 24.8 °F 16.1 °F 17.6 °F 74% 29.92 in 5.0 mi WSW 8.1 mph - N/A Snow Light Snow
2:35 PM 24.8 °F 14.6 °F 17.6 °F 74% 29.93 in 4.0 mi WSW 10.4 mph 18.4 mph N/A Snow Light Snow
2:55 PM 24.8 °F 12.9 °F 17.6 °F 74% 29.94 in 7.0 mi WSW 13.8 mph 20.7 mph N/A Snow Light Snow
3:15 PM 24.8 °F 12.4 °F 17.6 °F 74% 29.95 in 10.0 mi WSW 15.0 mph 19.6 mph N/A   Overcast
3:35 PM 24.8 °F 14.0 °F 17.6 °F 74% 29.96 in 10.0 mi WSW 11.5 mph 20.7 mph N/A Snow Light Snow
3:55 PM 24.8 °F 16.1 °F 17.6 °F 74% 29.97 in 10.0 mi WSW 8.1 mph - N/A   Overcast
4:15 PM 24.8 °F 14.6 °F 17.6 °F 74% 29.98 in 10.0 mi WSW 10.4 mph 16.1 mph N/A   Overcast
4:35 PM 23.0 °F 13.1 °F 17.6 °F 80% 29.99 in 10.0 mi WSW 9.2 mph - N/A   Overcast
4:55 PM 23.0 °F 11.7 °F 17.6 °F 80% 30.00 in 10.0 mi WSW 11.5 mph - N/A   Mostly Cloudy
5:15 PM 23.0 °F 13.1 °F 17.6 °F 80% 30.01 in 10.0 mi WSW 9.2 mph - N/A   Overcast
5:35 PM 23.0 °F 13.1 °F 17.6 °F 80% 30.02 in 10.0 mi WSW 9.2 mph - N/A Snow Light Snow
5:55 PM 23.0 °F 13.9 °F 17.6 °F 80% 30.03 in 10.0 mi WSW 8.1 mph - N/A Snow Light Snow
6:15 PM 23.0 °F 11.7 °F 19.4 °F 86% 30.04 in 7.0 mi WSW 11.5 mph - N/A Snow Light Snow
6:35 PM 23.0 °F 13.9 °F 19.4 °F 86% 30.05 in 7.0 mi WSW 8.1 mph - N/A Snow Light Snow
6:55 PM 24.8 °F 16.9 °F 19.4 °F 80% 30.05 in 5.0 mi WSW 6.9 mph - N/A Snow Light Snow
7:15 PM 24.8 °F 14.6 °F 19.4 °F 80% 30.06 in 7.0 mi WSW 10.4 mph - N/A Snow Light Snow
7:35 PM 24.8 °F 16.9 °F 19.4 °F 80% 30.07 in 7.0 mi WSW 6.9 mph - N/A Snow Light Snow
7:55 PM 24.8 °F 16.9 °F 19.4 °F 80% 30.09 in 10.0 mi West 6.9 mph - N/A Snow Light Snow
8:35 PM 24.8 °F 16.9 °F 19.4 °F 80% 30.10 in 10.0 mi West 6.9 mph - N/A   Overcast
8:55 PM 24.8 °F 16.9 °F 19.4 °F 80% 30.11 in 10.0 mi WSW 6.9 mph - N/A Snow Light Snow
9:15 PM 24.8 °F 15.3 °F 19.4 °F 80% 30.12 in 10.0 mi WSW 9.2 mph - N/A   Overcast
9:35 PM 24.8 °F 16.1 °F 17.6 °F 74% 30.13 in 10.0 mi WSW 8.1 mph - N/A   Overcast
9:55 PM 24.8 °F 16.9 °F 17.6 °F 74% 30.15 in 10.0 mi WSW 6.9 mph - N/A   Overcast
10:15 PM 24.8 °F 16.1 °F 17.6 °F 74% 30.15 in 10.0 mi WSW 8.1 mph - N/A   Overcast
10:35 PM 24.8 °F 20.5 °F 17.6 °F 74% 30.16 in 10.0 mi WSW 3.5 mph - N/A   Overcast
10:55 PM 24.8 °F 16.9 °F 17.6 °F 74% 30.17 in 10.0 mi WSW 6.9 mph - N/A   Overcast
11:15 PM 24.8 °F 19.1 °F 17.6 °F 74% 30.18 in 10.0 mi West 4.6 mph - N/A   Overcast
11:35 PM 24.8 °F 17.9 °F 17.6 °F 74% 30.18 in 10.0 mi West 5.8 mph - N/A   Overcast
11:55 PM 24.8 °F 17.9 °F 17.6 °F 74% 30.19 in 10.0 mi West 5.8 mph - N/A   Overcast